Hourly Weather Starogard Gdański

Today, 11 July, Saturday

Time Temperature Precipitation Wind Pressure Humidity
00:00 +13°C° 0 mm 5 mps 751 mmHg 89%
01:00 +12°C° 0 mm 4 mps 753 mmHg 89%
02:00 +11°C° 0 mm 4 mps 753 mmHg 90%
03:00 +11°C° 0 mm 4 mps 753 mmHg 90%
04:00 +10°C° 0 mm 4 mps 754 mmHg 91%
05:00 +10°C° 0 mm 5 mps 754 mmHg 87%
06:00 +12°C° 0 mm 5 mps 754 mmHg 83%
07:00 +13°C° 0 mm 5 mps 755 mmHg 77%
08:00 +14°C° 0 mm 5 mps 756 mmHg 72%
09:00 +15°C° 0 mm 5 mps 756 mmHg 67%
10:00 +16°C° 0 mm 5 mps 756 mmHg 62%
11:00 +16°C° 0 mm 5 mps 757 mmHg 61%
12:00 +18°C° 0 mm 4 mps 757 mmHg 60%
13:00 +18°C° 0 mm 4 mps 758 mmHg 58%
14:00 +18°C° 0 mm 4 mps 758 mmHg 58%
15:00 +18°C° 0 mm 4 mps 757 mmHg 57%
16:00 +19°C° 0 mm 4 mps 757 mmHg 57%
17:00 +18°C° 0 mm 3 mps 757 mmHg 62%
18:00 +17°C° 0 mm 3 mps 758 mmHg 67%
19:00 +16°C° 0 mm 2 mps 758 mmHg 72%
20:00 +14°C° 0 mm 2 mps 758 mmHg 74%
21:00 +13°C° 0 mm 2 mps 758 mmHg 75%
22:00 +12°C° 0 mm 2 mps 758 mmHg 77%
23:00 +12°C° 0 mm 2 mps 758 mmHg 80%

Tomorrow, 12 July, Sunday

Time Temperature Precipitation Wind Pressure Humidity
00:00 +10°C° 0 mm 2 mps 758 mmHg 83%
01:00 +10°C° 0 mm 3 mps 758 mmHg 85%
02:00 +10°C° 0 mm 3 mps 758 mmHg 87%
03:00 +9°C° 0 mm 3 mps 758 mmHg 90%
04:00 +9°C° 0 mm 3 mps 758 mmHg 92%
05:00 +11°C° 0 mm 3 mps 758 mmHg 85%
06:00 +13°C° 0 mm 4 mps 759 mmHg 79%
07:00 +14°C° 0 mm 4 mps 759 mmHg 72%
08:00 +15°C° 0.1 mm 4 mps 759 mmHg 68%
09:00 +17°C° 0.1 mm 4 mps 759 mmHg 64%
10:00 +17°C° 0.1 mm 5 mps 759 mmHg 60%
11:00 +19°C° 0.1 mm 5 mps 760 mmHg 58%
12:00 +19°C° 0.1 mm 5 mps 760 mmHg 56%
13:00 +19°C° 0.1 mm 5 mps 760 mmHg 54%
14:00 +19°C° 0.1 mm 5 mps 760 mmHg 54%
15:00 +19°C° 0.1 mm 5 mps 760 mmHg 55%
16:00 +19°C° 0.1 mm 5 mps 760 mmHg 55%
17:00 +18°C° 0 mm 4 mps 759 mmHg 60%
18:00 +17°C° 0 mm 4 mps 759 mmHg 65%
19:00 +16°C° 0 mm 3 mps 759 mmHg 70%
20:00 +13°C° 0 mm 3 mps 759 mmHg 75%
21:00 +12°C° 0 mm 3 mps 759 mmHg 80%
22:00 +11°C° 0 mm 3 mps 759 mmHg 86%
23:00 +10°C° 0 mm 3 mps 759 mmHg 88%

Day after tomorrow, 13 July, Monday

Time Temperature Precipitation Wind Pressure Humidity
00:00 +10°C° 0 mm 3 mps 759 mmHg 91%
01:00 +10°C° 0 mm 3 mps 759 mmHg 93%
02:00 +10°C° 0 mm 3 mps 759 mmHg 94%
03:00 +10°C° 0 mm 3 mps 758 mmHg 94%
04:00 +10°C° 0 mm 4 mps 758 mmHg 94%
05:00 +12°C° 0 mm 4 mps 758 mmHg 89%
06:00 +13°C° 0 mm 4 mps 758 mmHg 83%
07:00 +15°C° 0 mm 4 mps 758 mmHg 77%
08:00 +17°C° 0.2 mm 4 mps 758 mmHg 76%
09:00 +16°C° 0.2 mm 5 mps 758 mmHg 75%
10:00 +17°C° 0.2 mm 5 mps 758 mmHg 74%
11:00 +17°C° 0.3 mm 5 mps 758 mmHg 72%
12:00 +19°C° 0.3 mm 5 mps 758 mmHg 69%
13:00 +20°C° 0.3 mm 5 mps 758 mmHg 66%
14:00 +19°C° 0.2 mm 5 mps 758 mmHg 66%
15:00 +19°C° 0.2 mm 5 mps 757 mmHg 66%
16:00 +19°C° 0.2 mm 5 mps 757 mmHg 66%
17:00 +18°C° 0 mm 4 mps 757 mmHg 70%
18:00 +17°C° 0 mm 3 mps 757 mmHg 74%
19:00 +16°C° 0 mm 3 mps 757 mmHg 77%
20:00 +15°C° 0 mm 2 mps 757 mmHg 82%
21:00 +14°C° 0 mm 2 mps 757 mmHg 86%
22:00 +12°C° 0 mm 2 mps 756 mmHg 91%
23:00 +12°C° 0 mm 2 mps 756 mmHg 92%

14 July, Tuesday

Time Temperature Precipitation Wind Pressure Humidity
00:00 +12°C° 0 mm 2 mps 756 mmHg 93%
01:00 +10°C° 0 mm 2 mps 756 mmHg 94%
02:00 +10°C° 0 mm 2 mps 756 mmHg 95%
03:00 +10°C° 0 mm 2 mps 756 mmHg 95%
04:00 +10°C° 0 mm 2 mps 756 mmHg 96%
05:00 +13°C° 0 mm 2 mps 756 mmHg 90%
06:00 +14°C° 0 mm 1 mps 756 mmHg 84%
07:00 +16°C° 0 mm 1 mps 756 mmHg 79%
08:00 +18°C° 0 mm 1 mps 756 mmHg 72%
09:00 +20°C° 0 mm 1 mps 756 mmHg 66%
10:00 +21°C° 0 mm 1 mps 756 mmHg 59%
11:00 +22°C° 0 mm 1 mps 756 mmHg 56%
12:00 +23°C° 0 mm 1 mps 756 mmHg 53%
13:00 +24°C° 0 mm 1 mps 756 mmHg 49%
14:00 +24°C° 0 mm 1 mps 755 mmHg 51%
15:00 +23°C° 0 mm 1 mps 755 mmHg 53%
16:00 +23°C° 0 mm 1 mps 755 mmHg 55%
17:00 +21°C° 0 mm 2 mps 755 mmHg 62%
18:00 +20°C° 0 mm 2 mps 755 mmHg 69%
19:00 +19°C° 0 mm 2 mps 755 mmHg 76%
20:00 +18°C° 0 mm 2 mps 754 mmHg 80%
21:00 +16°C° 0 mm 2 mps 754 mmHg 83%
22:00 +15°C° 0 mm 1 mps 754 mmHg 87%
23:00 +15°C° 0 mm 2 mps 754 mmHg 87%

15 July, Wednesday

Time Temperature Precipitation Wind Pressure Humidity
00:00 +14°C° 0 mm 2 mps 754 mmHg 88%
01:00 +14°C° 0 mm 2 mps 754 mmHg 88%
02:00 +14°C° 0 mm 2 mps 754 mmHg 88%
03:00 +14°C° 0 mm 2 mps 753 mmHg 88%
04:00 +14°C° 0 mm 2 mps 753 mmHg 88%
05:00 +15°C° 0 mm 2 mps 753 mmHg 85%
06:00 +17°C° 0 mm 3 mps 753 mmHg 81%
07:00 +18°C° 0 mm 3 mps 753 mmHg 77%
08:00 +20°C° 0 mm 3 mps 753 mmHg 70%
09:00 +21°C° 0 mm 4 mps 752 mmHg 64%
10:00 +23°C° 0 mm 4 mps 752 mmHg 58%
11:00 +25°C° 0 mm 4 mps 752 mmHg 55%
12:00 +25°C° 0 mm 4 mps 751 mmHg 53%
13:00 +26°C° 0 mm 4 mps 751 mmHg 51%
14:00 +25°C° 0.5 mm 4 mps 751 mmHg 55%
15:00 +25°C° 0.5 mm 4 mps 750 mmHg 59%
16:00 +25°C° 0.5 mm 4 mps 750 mmHg 64%
17:00 +22°C° 0.8 mm 4 mps 750 mmHg 71%
18:00 +21°C° 0.8 mm 3 mps 749 mmHg 78%
19:00 +19°C° 0.8 mm 3 mps 749 mmHg 85%
20:00 +18°C° 1 mm 3 mps 749 mmHg 88%
21:00 +18°C° 1 mm 3 mps 749 mmHg 91%
22:00 +17°C° 1 mm 3 mps 749 mmHg 94%
23:00 +16°C° 0.1 mm 3 mps 749 mmHg 93%

16 July, Thursday

Time Temperature Precipitation Wind Pressure Humidity
00:00 +14°C° 0.1 mm 4 mps 749 mmHg 92%
01:00 +13°C° 0.1 mm 4 mps 750 mmHg 91%
02:00 +13°C° 0 mm 4 mps 750 mmHg 93%
03:00 +12°C° 0 mm 4 mps 750 mmHg 94%
04:00 +12°C° 0 mm 4 mps 750 mmHg 95%
05:00 +12°C° 0 mm 4 mps 750 mmHg 91%
06:00 +13°C° 0 mm 5 mps 750 mmHg 87%
07:00 +14°C° 0 mm 5 mps 751 mmHg 83%
08:00 +15°C° 0.1 mm 5 mps 751 mmHg 76%
09:00 +17°C° 0.1 mm 5 mps 751 mmHg 69%
10:00 +19°C° 0.1 mm 5 mps 751 mmHg 63%
11:00 +19°C° 0.1 mm 5 mps 751 mmHg 62%
12:00 +19°C° 0.1 mm 5 mps 750 mmHg 62%
13:00 +19°C° 0.1 mm 5 mps 750 mmHg 61%
14:00 +19°C° 0.1 mm 5 mps 750 mmHg 62%
15:00 +19°C° 0.1 mm 5 mps 750 mmHg 64%
16:00 +19°C° 0.1 mm 5 mps 750 mmHg 65%
17:00 +17°C° 0.2 mm 5 mps 750 mmHg 70%
18:00 +17°C° 0.2 mm 4 mps 750 mmHg 75%
19:00 +16°C° 0.2 mm 3 mps 750 mmHg 80%
20:00 +14°C° 0 mm 3 mps 750 mmHg 83%
21:00 +13°C° 0 mm 3 mps 750 mmHg 85%
22:00 +12°C° 0 mm 3 mps 749 mmHg 88%
23:00 +12°C° 0 mm 4 mps 749 mmHg 89%
Show more